Location: Newark
(5.8900°S, 42.6378°W)
Time: 15:15:10
(UTC+00:00)

A-11 Canister half - Visible Passes

Search period start: 23 September 2019 00:00
Search period end: 03 October 2019 00:00
Orbit: 1527 x 1682 km, 47.3° (Epoch: 22 September)

Date Brightness Start Highest point End Pass type
(mag) Time Alt. Az. Time Alt. Az. Time Alt. Az.
26 Sep 10.9 23:25:50 10° S 23:26:47 12° S 23:26:47 12° S visible
27 Sep 10.7 23:04:34 10° S 23:06:30 13° SSE 23:06:30 13° SSE visible
28 Sep 10.6 22:43:21 10° S 22:46:16 14° SSE 22:46:16 14° SSE visible
29 Sep 11.2 00:44:18 10° SW 00:44:35 11° SW 00:44:35 11° SW visible
29 Sep 10.6 22:22:12 10° SSE 22:26:04 13° SE 22:26:04 13° SE visible
30 Sep 10.9 00:22:42 10° SSW 00:24:23 17° SSW 00:24:23 17° SSW visible
30 Sep 10.6 22:01:11 10° SSE 22:04:33 12° SE 22:05:56 12° SE visible
01 Oct 10.5 00:01:06 10° SSW 00:04:16 24° SSW 00:04:16 24° SSW visible
01 Oct 10.6 21:40:24 10° SSE 21:42:48 11° SE 21:45:11 10° SE visible
01 Oct 10.1 23:39:31 10° SSW 23:44:11 32° SSW 23:44:11 32° SSW visible
02 Oct 10.7 21:20:43 10° SE 21:21:02 10° SE 21:21:21 10° SE visible
02 Oct 9.7 23:17:56 10° SSW 23:24:09 41° S 23:24:09 41° S visible
